sat.trackr.live / text

‹ back to catalog

STARLINK-33861

NORAD 63678 · 2025-085Q

PAYLOAD ACTIVE UNKNOWN

§ Identity

Operator
Country
US
Launch date
2025-04-28
Launch site
AFETR
Launch vehicle
Mass (kg)
RCS (m²)

Purposes: comms

External: N2YO · Heavens-Above · Gunter

§ Orbital elements

Epoch: 2026-09-20T13:57:46.776096Z

Period
94.27 min
Inclination
43.0033°
Eccentricity
0.0001298
Mean motion
15.27590719 rev/d
Perigee alt
482.1 km
Apogee alt
483.9 km
Semi-major
6,861.2 km
B*
4.9041e-4
RAAN
10.4898°
Arg perigee
275.8491°
Mean anomaly
84.2212°
Rev number
7,866

§ Raw data

STARLINK-338611 63678U 25085Q   26263.58179139  .00013261  00000+0  49041-3 0  99952 63678  43.0033  10.4898 0001298 275.8491  84.2212 15.27590719 78663

JSON: /api/v1/satellites/63678 · /tle

For live sub-satellite position, see the globe view (requires WebGL).

§ Visibility from observer

Set your observer location to see the next 7 days of passes ≥ 10°. The values pass through the URL so the page stays shareable.

No JS? Fill the form by hand. The geolocation button needs JavaScript.